Year,Month,Day,Hour,Minute,Value (Times are PST for temperature in C)
2016,01,29,09,36,5.90
2016,01,29,09,37,5.90
2016,01,29,09,38,5.90
2016,01,29,09,39,5.90
2016,01,29,09,40,5.90
2016,01,29,09,41,5.90
2016,01,29,09,42,5.90
2016,01,29,09,43,5.90
2016,01,29,09,44,5.90
2016,01,29,09,45,5.90
2016,01,29,09,46,5.90
2016,01,29,09,47,5.90
2016,01,29,09,48,5.90
2016,01,29,09,49,5.90
2016,01,29,09,50,5.90
2016,01,29,09,51,5.90
2016,01,29,09,52,5.90
2016,01,29,09,53,5.90
2016,01,29,09,54,5.90
2016,01,29,09,55,5.90
2016,01,29,09,56,5.90
2016,01,29,09,57,5.90
2016,01,29,09,58,5.90
2016,01,29,09,59,5.90
2016,01,29,10,00,5.90
2016,01,29,10,01,5.90
2016,01,29,10,02,5.90
2016,01,29,10,03,5.90
2016,01,29,10,04,5.90
2016,01,29,10,05,5.90
2016,01,29,10,06,5.90
2016,01,29,10,07,5.90
2016,01,29,12,56,7.50
2016,01,29,12,57,7.40
2016,01,29,12,58,7.50
2016,01,29,12,59,7.50
2016,01,29,13,00,7.40
2016,01,29,13,01,7.40
2016,01,29,13,02,7.40
2016,01,29,13,03,7.40
2016,01,29,13,04,7.40
2016,01,29,13,05,7.40
2016,01,29,13,06,7.30
2016,01,29,13,07,7.30
2016,01,29,13,08,7.30
2016,01,29,13,09,7.30
2016,01,29,13,10,7.30
2016,01,29,13,11,7.30
2016,01,29,13,12,7.30
2016,01,29,13,13,7.30
2016,01,29,13,14,7.30
2016,01,29,13,15,7.30
2016,01,29,13,16,7.20
2016,01,29,13,17,7.20
2016,01,29,13,18,7.10
2016,01,29,13,19,7.10
2016,01,29,13,20,7.00
2016,01,29,13,21,7.00
2016,01,29,13,22,6.90
2016,01,29,13,23,6.90
2016,01,29,13,24,6.90
2016,01,29,13,25,6.90
2016,01,29,13,26,6.80
2016,01,29,13,27,6.80
2016,01,29,13,28,6.80
2016,01,29,13,29,6.90
2016,01,29,13,30,6.90
2016,01,29,13,31,6.90
2016,01,29,13,32,6.80
2016,01,29,13,33,6.80
2016,01,29,13,34,6.80
2016,01,29,13,35,6.80
2016,01,29,13,36,6.80
2016,01,29,13,37,6.90
2016,01,29,13,38,6.90
2016,01,29,13,39,6.90
2016,01,29,13,40,6.90
2016,01,29,13,41,7.00
2016,01,29,13,42,7.00
2016,01,29,13,43,7.10
2016,01,29,13,44,7.10
2016,01,29,13,45,7.10
2016,01,29,13,46,7.20
2016,01,29,13,47,7.20
2016,01,29,13,48,7.10
2016,01,29,13,49,7.10
2016,01,29,13,50,7.10
2016,01,29,13,51,7.10
2016,01,29,13,52,7.10
2016,01,29,13,53,7.10
2016,01,29,13,54,7.20
2016,01,29,13,55,7.20
2016,01,29,13,56,7.20
2016,01,29,13,57,7.20
2016,01,29,13,58,7.20
2016,01,29,13,59,7.20
2016,01,29,14,00,7.20
2016,01,29,14,01,7.20
2016,01,29,14,02,7.30
2016,01,29,14,03,7.30
2016,01,29,14,04,7.30
2016,01,29,14,05,7.30
2016,01,29,14,06,7.40
2016,01,29,14,07,7.40
2016,01,29,14,08,7.50
2016,01,29,14,09,7.60
2016,01,29,14,10,7.70
2016,01,29,14,11,7.70
2016,01,29,14,12,7.80
2016,01,29,14,13,7.80
2016,01,29,14,14,7.90
2016,01,29,14,15,7.90
2016,01,29,14,16,8.00
2016,01,29,14,17,8.10
2016,01,29,14,18,8.20
2016,01,29,14,19,8.30
2016,01,29,14,20,8.30
2016,01,29,14,21,8.30
2016,01,29,14,22,8.30
2016,01,29,14,23,8.30
2016,01,29,14,24,8.30
2016,01,29,14,25,8.30
2016,01,29,14,26,8.30
2016,01,29,14,27,8.40
2016,01,29,14,28,8.40
2016,01,29,14,29,8.40
2016,01,29,14,30,8.40
2016,01,29,14,31,8.40
2016,01,29,14,32,8.30
2016,01,29,14,33,8.20
2016,01,29,14,34,8.20
2016,01,29,14,35,8.10
2016,01,29,14,36,8.10
2016,01,29,14,37,8.00
2016,01,29,14,38,7.90
2016,01,29,14,39,7.90
2016,01,29,14,40,7.80
2016,01,29,14,41,7.80
2016,01,29,14,42,7.80
2016,01,29,14,43,7.80
2016,01,29,14,44,7.90
2016,01,29,14,45,7.90
2016,01,29,14,46,7.90
2016,01,29,14,47,7.90
2016,01,29,14,48,8.00
2016,01,29,14,49,8.00
2016,01,29,14,50,8.00
2016,01,29,14,51,8.10
2016,01,29,14,52,8.10
2016,01,29,14,53,8.10
2016,01,29,14,54,8.10
2016,01,29,14,55,8.00
2016,01,29,14,56,8.00
2016,01,29,14,57,7.90
2016,01,29,14,58,7.90
2016,01,29,14,59,7.90
2016,01,29,15,00,7.80
2016,01,29,15,01,7.80
2016,01,29,15,02,7.80
2016,01,29,15,03,7.70
2016,01,29,15,04,7.70
2016,01,29,15,05,7.70
2016,01,29,15,06,7.60
2016,01,29,15,07,7.50
2016,01,29,15,08,7.50
2016,01,29,15,09,7.40
2016,01,29,15,10,7.40
2016,01,29,15,11,7.40
2016,01,29,15,12,7.40
2016,01,29,15,13,7.50
2016,01,29,15,14,7.50
2016,01,29,15,15,7.50
2016,01,29,15,16,7.50
2016,01,29,15,17,7.60
2016,01,29,15,18,7.60
2016,01,29,15,19,7.60
2016,01,29,15,20,7.70
2016,01,29,15,21,7.70
2016,01,29,15,22,7.80
2016,01,29,15,23,7.80
2016,01,29,15,24,7.90
2016,01,29,15,25,8.00
2016,01,29,15,26,8.00
2016,01,29,15,27,8.00
2016,01,29,15,28,8.10
2016,01,29,15,29,8.10
2016,01,29,15,30,8.10
2016,01,29,15,31,8.10
2016,01,29,15,32,8.10
2016,01,29,15,33,8.20
2016,01,29,15,34,8.20
2016,01,29,15,35,8.20
2016,01,29,15,36,8.20
2016,01,29,15,37,8.20
2016,01,29,15,38,8.20
2016,01,29,15,39,8.20
2016,01,29,15,40,8.20
2016,01,29,15,41,8.20
2016,01,29,15,42,8.20
2016,01,29,15,43,8.10
2016,01,29,15,44,8.20
2016,01,29,15,45,8.10
2016,01,29,15,46,8.20
2016,01,29,15,47,8.20
2016,01,29,15,48,8.10
2016,01,29,15,49,8.10
2016,01,29,15,50,8.10
2016,01,29,15,51,8.20
2016,01,29,15,52,8.20
2016,01,29,15,53,8.20
2016,01,29,15,54,8.20
2016,01,29,15,55,8.10
2016,01,29,15,56,8.10
2016,01,29,15,57,8.10
2016,01,29,15,58,8.00
2016,01,29,15,59,8.00
2016,01,29,16,00,7.90
2016,01,29,16,01,7.90
2016,01,29,16,02,7.90
2016,01,29,16,03,7.90
2016,01,29,16,04,7.80
2016,01,29,16,05,7.80
2016,01,29,16,06,7.80
2016,01,29,16,07,7.80
2016,01,29,16,08,7.70
2016,01,29,16,09,7.70
2016,01,29,16,10,7.60
2016,01,29,16,11,7.60
2016,01,29,16,12,7.60
2016,01,29,16,13,7.50
2016,01,29,16,14,7.50
2016,01,29,16,15,7.50
2016,01,29,16,16,7.50
2016,01,29,16,17,7.40
2016,01,29,16,18,7.40
2016,01,29,16,19,7.40
2016,01,29,16,20,7.40
2016,01,29,16,21,7.30
2016,01,29,16,22,7.30
2016,01,29,16,23,7.30
2016,01,29,16,24,7.30
2016,01,29,16,25,7.30
2016,01,29,16,26,7.30
2016,01,29,16,27,7.30
2016,01,29,16,28,7.30
2016,01,29,16,29,7.30
2016,01,29,16,30,7.30
2016,01,29,16,31,7.30
2016,01,29,16,32,7.30
2016,01,29,16,33,7.30
2016,01,29,16,34,7.30
2016,01,29,16,35,7.30
2016,01,29,16,36,7.30
2016,01,29,16,37,7.30
2016,01,29,16,38,7.30
2016,01,29,16,39,7.30
2016,01,29,16,40,7.30
2016,01,29,16,41,7.20
2016,01,29,16,42,7.20
2016,01,29,16,43,7.20
2016,01,29,16,44,7.10
2016,01,29,16,45,7.10
2016,01,29,16,46,7.10
2016,01,29,16,47,7.10
2016,01,29,16,48,7.10
2016,01,29,16,49,7.00
2016,01,29,16,50,7.00
2016,01,29,16,51,7.00
2016,01,29,16,52,7.00
2016,01,29,16,53,7.00
2016,01,29,16,54,7.10
2016,01,29,16,55,7.10
2016,01,29,16,56,7.10
2016,01,29,16,57,7.10
2016,01,29,16,58,7.10
2016,01,29,16,59,7.20
2016,01,29,17,00,7.20
2016,01,29,17,01,7.20
2016,01,29,17,02,7.20
2016,01,29,17,03,7.20
2016,01,29,17,04,7.20
2016,01,29,17,05,7.20
2016,01,29,17,06,7.10
2016,01,29,17,07,7.10
2016,01,29,17,08,7.10
2016,01,29,17,09,7.10
2016,01,29,17,10,7.10
2016,01,29,17,11,7.10
2016,01,29,17,12,7.10
2016,01,29,17,13,7.00
2016,01,29,17,14,7.00
2016,01,29,17,15,7.00
2016,01,29,17,16,7.00
2016,01,29,17,17,7.00
2016,01,29,17,18,7.10
2016,01,29,17,19,7.10
2016,01,29,17,20,7.10
2016,01,29,17,21,7.10
2016,01,29,17,22,7.10
2016,01,29,17,23,7.10
2016,01,29,17,24,7.10
2016,01,29,17,25,7.10
2016,01,29,17,26,7.00
2016,01,29,17,27,7.00
2016,01,29,17,28,7.00
2016,01,29,17,29,6.90
2016,01,29,17,30,6.90
2016,01,29,17,31,6.90
2016,01,29,17,32,6.90
2016,01,29,17,33,6.90
2016,01,29,17,34,6.90
2016,01,29,17,35,6.90
2016,01,29,17,36,6.90
2016,01,29,17,37,6.80
2016,01,29,17,38,6.80
2016,01,29,17,39,6.80
2016,01,29,17,40,6.80
2016,01,29,17,41,6.80
2016,01,29,17,42,6.80
2016,01,29,17,43,6.70
2016,01,29,17,44,6.70
2016,01,29,17,45,6.70
2016,01,29,17,46,6.60
2016,01,29,17,47,6.60
2016,01,29,17,48,6.50
2016,01,29,17,49,6.50
2016,01,29,17,50,6.40
2016,01,29,17,51,6.30
2016,01,29,17,52,6.30
2016,01,29,17,53,6.20
2016,01,29,17,54,6.20
2016,01,29,17,55,6.20
2016,01,29,17,56,6.20
2016,01,29,17,57,6.20
2016,01,29,17,58,6.20
2016,01,29,17,59,6.20
2016,01,29,18,00,6.20
2016,01,29,18,01,6.30
2016,01,29,18,02,6.40
2016,01,29,18,03,6.40
2016,01,29,18,04,6.40
2016,01,29,18,05,6.40
2016,01,29,18,06,6.50
2016,01,29,18,07,6.50
2016,01,29,18,08,6.50
2016,01,29,18,09,6.40
2016,01,29,18,10,6.40
2016,01,29,18,11,6.40
2016,01,29,18,12,6.40
2016,01,29,18,13,6.40
2016,01,29,18,14,6.40
2016,01,29,18,15,6.40
2016,01,29,18,16,6.40
2016,01,29,18,17,6.40
2016,01,29,18,18,6.40
2016,01,29,18,19,6.40
2016,01,29,18,20,6.40
2016,01,29,18,21,6.30
2016,01,29,18,22,6.30
2016,01,29,18,23,6.30
2016,01,29,18,24,6.30
2016,01,29,18,25,6.30
2016,01,29,18,26,6.30
2016,01,29,18,27,6.30
2016,01,29,18,28,6.20
2016,01,29,18,29,6.20
2016,01,29,18,30,6.20
2016,01,29,18,31,6.20
2016,01,29,18,32,6.10
2016,01,29,18,33,6.10
2016,01,29,18,34,6.10
2016,01,29,18,35,6.10
2016,01,29,18,36,6.10
2016,01,29,18,37,6.20
2016,01,29,18,38,6.20
2016,01,29,18,39,6.20
2016,01,29,18,40,6.20
2016,01,29,18,41,6.30
2016,01,29,18,42,6.30
2016,01,29,18,43,6.30
2016,01,29,18,44,6.30
2016,01,29,18,45,6.20
2016,01,29,18,46,6.20
2016,01,29,18,47,6.10
2016,01,29,18,48,6.10
2016,01,29,18,49,6.10
2016,01,29,18,50,6.10
2016,01,29,18,51,6.00
2016,01,29,18,52,6.00
2016,01,29,18,53,6.00
2016,01,29,18,54,5.90
2016,01,29,18,55,5.90
2016,01,29,18,56,5.90
2016,01,29,18,57,5.80
2016,01,29,18,58,5.80
2016,01,29,18,59,5.80
2016,01,29,19,00,5.80
2016,01,29,19,01,5.70
2016,01,29,19,02,5.70
2016,01,29,19,03,5.70
2016,01,29,19,04,5.70
2016,01,29,19,05,5.70
2016,01,29,19,06,5.70
2016,01,29,19,07,5.70
2016,01,29,19,08,5.70
2016,01,29,19,09,5.70
2016,01,29,19,10,5.70
2016,01,29,19,11,5.70
2016,01,29,19,12,5.70
